STARLINK-1983 (47630 NORAD) Tracking and Keplerian Element Data

This shows tracking and keplerian element data for the satellite.

Feedback or suggestion? Click here.




ElementValue
Catalog47630
NameSTARLINK-1983
Epoch Orbit1007
Epoch Day106.16668981
Epoch Year2021
RAAN167.8365
Inclination53.0457
Eccentricity0.0002056
Argument of Perigee27.1609
Mean Anonmoly358.8938
Mean Motion15.73373416
Decay Rate-0.00441074
L11 47630U 21012L 21106.16668981 -.00441074 00000-0 -32801-2 0 9999
L22 47630 53.0457 167.8365 0002056 27.1609 358.8938 15.73373416 10072

Live tracking and technical data element details for STARLINK-1983 (NORAD 47630). STARLINK-1983 can be tracked NOW for your location showing map with azimuth and elevation plus other details from your city location.

Track the satellite on the map from your city or location and see movement details for azimuth, elevation, latitude, longitude, range, height, and movement on the map or in text.







IsCatalogInMostPopularTable: catalog: 47630, numindb: 16
Update: records affected: 1



GetName: 47630 STARLINK-1983

Hit Count: updated at: Fri, 16 Apr 2021 10:51:23 GMT